SCP
0 0 0 0 0 0 0 0 0 0 0 0 0 0 0 0 0 0 0 0 0 0 0 0 0 0 0 0 0 0 0 0 0 0 0 0 0 0 0 0 0 0 0 0 0 0 0 0 0 0 0 0 0 0
0 0 0 0 0 0 0 0 0 0 0 0 0 0 0 0 0 0 0 0 0 0 0 0 0 0 0 0 0 0 0 0 0 0 0 0 0 0 0 0 0 0 0 0 0 0 0 0 0 0 0 0 0 0
0 0 0 0 0 0 0 0 0 0 0 0 0 0 0 0 0 0 0 0 0 0 0 0 0 0 0 0 0 0 0 0 0 0 0 0 0 0 0 0 0 0 0 0 0 0 0 0 0 0 -0 0 0 0
0 0 0 0 0 0 0 0 0 0 0 0 0 0 0 0 0 0 0 0 0 0 0 0 0 0 0 0 0 0 0 0 0 0 0 0 0 0 0 0 0 0 0 0 -0 -0 -0 -0 0 0 0 0 0 0
0 0 0 0 0 0 0 0 0 0 0 0 0 0 0 0 0 0 0 0 0 0 0 0 0 0 0 0 0 0 0 0 0 0 0 0 0 0 0 0 0 0 0 0 0 0 0 0 0 0 0 0 0 0
0 0 0 0 0 0 0 0 0 0 0 0 0 0 0 0 0 0 0 0 0 0 0 0 0 0 0 0 0 0 0 0 0 0 0 0 0 0 0 0 0 0 0 0 0 0 0 0 0 0 0 0 0 0
0 0 0 0 0 0 0 0 0 0 0 0 0 0 0 0 0 0 0 0 0 0 0 0 0 0 0 0 0 0 0 0 0 0 0 0 0 0 0 0 0 0 0 0 0 0 0 0 0 0 0 0 0 0
0 0 0 0 0 0 0 0 0 0 0 0 0 0 0 0 0 0 0 0 0 0 0 0 0 0 0 0 0 0 0 0 0 0 0 0 0 0 0 -0 0 0 0 0 0 0 0 0 0 0 0 0 0 0
0 0 0 0 0 0 0 0 0 0 0 0 0 0 0 0 0 0 0 0 0 0 0 0 0 0 0 0 0 0 0 0 0 0 0 0 0 0 0 0 0 0 0 0 0 0 0 0 0 0 0 0 0 0
0 0 0 0 0 0 0 0 0 0 0 0 0 0 0 0 0 0 0 0 0 0 0 0 0 0 0 0 0 0 0 0 0 0 0 0 0 -0 0 0 0 0 0 0 0 0 0 0 0 0 0 0 0 0
0 0 0 0 0 0 0 0 0 0 0 0 0 0 0 0 0 0 0 0 0 0 0 0 0 0 0 0 0 0 0 0 0 0 0 0 0 0 0 0 0 0 0 0 0 0 0 0 0 0 0 0 0 0
0 0 0 0 0 0 0 0 0 0 0 0 0 0 0 0 0 0 0 0 0 0 0 0 0 0 0 0 0 0 0 0 0 0 0 0 0 0 0 0 0 0 0 0 0 0 0 0 0 0 0 0 0 0
0 0 0 0 0 0 0 0 0 0 0 0 0 0 0 0 0 0 0 0 0 0 0 0 0 0 0 0 0 0 0 0 0 0 0 0 0 0 0 0 0 0 0 -0 -0 0 0 0 0 0 0 0 0 0
0 0 0 0 0 0 0 0 0 0 0 0 0 0 0 0 0 0 0 0 0 0 0 0 0 0 0 0 0 0 0 0 0 0 0 0 0 -0 -0 0 0 0 0 0 0 0 0 0 0 0 0 0 0 0
0 0 0 0 0 0 0 0 0 0 0 0 0 0 0 0 0 0 0 0 0 0 0 0 0 0 0 0 0 0 0 0 0 0 0 0 0 0 0 0 0 0 0 0 0 0 0 0 0 0 0 0 0 0
0 0 0 0 0 0 0 0 0 0 0 0 0 0 0 0 0 0 0 0 0 0 0 0 0 0 0 0 0 0 0 0 0 0 0 0 0 0 0 0 0 0 0 0 0 0 0 0 0 0 0 0 0 0
0 0 0 0 0 0 0 0 0 0 0 0 0 0 0 0 0 0 0 0 0 0 0 0 0 0 0 0 0 0 0 0 0 0 0 0 0 0 0 0 0 0 0 0 0 0 0 0 0 0 0 0 0 0
0 0 0 0 0 0 0 0 0 0 0 0 0 0 0 0 0 0 0 0 0 0 0 0 0 0 0 0 0 0 0 0 0 0 0 0 0 0 0 0 0 0 0 0 0 0 0 0 0 0 0 0 0 0
0 0 0 0 0 0 0 0 0 0 0 0 0 0 0 0 0 0 0 0 0 0 0 0 0 0 0 0 0 0 0 0 0 0 0 0 0 0 0 0 0 0 0 0 0 0 0 0 0 0 0 0 0 0
0 0 0 0 0 0 0 0 0 0 0 0 0 0 0 0 0 0 0 0 0 0 0 0 0 0 0 0 0 0 0 0 0 0 0 0 0 0 0 -0 -0 -0 -0 -0 0 0 0 0 0 0 0 0 0 0
0 0 0 0 0 0 0 0 0 0 0 0 0 0 0 0 0 0 0 0 0 0 0 0 0 0 0 0 0 0 0 -0 -0 0 0 -0 -0 -0 -0 -0 0 0 0 0 0 0 0 0 0 0 0 0 0 0
0 0 0 0 0 0 0 0 0 0 0 0 0 0 0 0 0 0 0 0 0 0 0 0 0 0 0 0 0 0 0 0 0 0 0 0 0 0 0 0 0 0 0 0 0 0 0 0 0 0 0 0 0 0
0 0 0 0 0 0 0 0 0 0 0 0 0 0 0 0 0 0 0 0 0 0 0 0 0 0 0 0 0 0 0 0 0 0 0 0 0 0 0 0 0 0 0 0 0 0 0 0 0 0 0 0 0 0
0 0 0 0 0 0 0 0 0 0 0 0 0 0 0 0 0 0 0 0 0 0 0 0 0 0 0 0 0 0 0 0 0 0 0 0 0 0 0 0 0 0 0 0 0 0 0 0 0 0 0 0 0 0
0 0 0 0 0 0 0 0 0 0 0 0 0 0 0 0 0 0 0 0 0 0 0 0 0 0 0 0 0 0 0 0 0 0 0 0 0 0 0 0 0 0 0 0 0 0 0 0 0 0 0 0 0 0
0 0 0 0 0 0 0 0 0 0 0 0 0 0 0 0 0 0 0 0 0 0 0 0 0 0 0 0 0 0 0 0 0 0 0 0 0 0 0 0 0 0 0 0 0 0 0 0 0 0 0 0 0 0
0 0 0 0 0 0 0 0 0 0 0 0 0 0 0 0 0 0 0 0 0 0 0 0 0 0 0 0 0 0 0 0 0 0 0 0 0 0 0 0 0 0 0 0 0 0 0 0 0 0 0 0 0 0
0 0 0 0 0 0 0 0 0 0 0 0 0 0 0 0 0 0 0 0 0 0 0 0 0 0 0 0 0 0 0 0 0 0 0 0 0 0 0 0 0 0 0 0 0 0 0 0 0 0 0 0 0 0
0 0 0 0 0 0 0 0 0 0 0 0 0 0 0 0 0 0 0 0 0 0 0 0 0 0 0 0 0 0 0 0 0 0 0 0 0 0 0 0 0 0 0 0 0 0 0 0 0 0 0 0 0 0
0 0 0 0 0 0 0 0 0 0 0 0 0 0 0 0 0 0 0 0 0 0 0 0 0 0 0 0 0 0 0 0 0 0 0 0 0 0 0 0 0 0 0 0 0 0 0 0 0 0 0 0 0 0
0 0 0 0 0 0 0 0 0 0 0 0 0 0 0 0 0 0 0 0 0 0 0 0 0 0 0 0 0 0 0 0 0 0 0 0 0 0 0 0 0 0 0 0 0 0 0 0 0 0 0 0 0 0
0 0 0 0 0 0 0 0 0 0 0 0 0 0 0 0 0 0 0 0 0 0 0 0 0 0 0 0 0 0 0 0 0 0 0 0 0 0 0 0 0 0 0 0 0 0 0 0 0 0 0 0 0 0
0 0 0 0 0 0 0 0 0 0 0 0 0 0 0 0 0 0 0 0 0 0 0 0 0 0 0 0 0 0 0 0 0 0 0 0 0 0 0 0 0 0 0 0 0 0 0 0 0 0 0 0 0 0
Wind_Speed_500mb
48 44 41 38 35 33 27 23 19 17 15 15 12 12 11 12 12 11 11 11 16 10 15 18 17 9 12 17 10 19 14 9 11 11 9 8 8 6 7 5 10 18 16 10 11 11 18 23 22 13 7 5 15 24
51 47 44 41 38 36 32 27 23 20 15 15 15 12 13 13 14 13 12 13 15 19 14 16 29 32 30 14 15 28 5 11 21 9 8 4 8 7 9 8 13 11 15 6 19 14 5 44 29 25 23 27 26 27
56 51 48 45 42 40 36 33 29 24 20 18 16 14 12 12 14 15 14 13 13 16 22 26 25 38 35 35 30 10 13 13 13 12 12 5 11 6 10 13 14 14 27 11 5 33 55 58 57 57 54 54 48 43
60 56 52 49 45 43 40 38 34 29 24 20 16 13 13 12 12 14 16 14 13 10 9 9 16 22 26 38 35 40 24 17 16 14 9 6 7 15 10 14 19 20 18 20 34 59 63 68 63 55 48 47 47 44
67 62 58 55 49 45 43 42 38 35 30 24 19 14 13 13 12 12 15 18 19 14 7 10 18 26 26 27 34 34 29 21 11 8 8 8 10 8 20 11 25 44 32 24 23 48 43 48 43 29 33 35 34 34
78 70 65 61 56 51 45 45 41 40 35 28 24 19 15 13 10 9 6 9 22 21 7 6 10 14 24 27 24 26 24 19 16 9 9 11 12 9 8 10 27 45 61 66 73 60 43 51 46 38 42 38 35 33
83 81 75 69 63 58 51 47 46 43 39 34 28 23 19 17 14 10 5 3 7 10 6 10 7 4 11 13 12 12 22 13 16 10 12 14 9 15 8 17 27 33 45 52 66 59 62 62 55 31 29 34 36 37
71 82 84 78 72 65 59 52 49 46 42 36 32 30 27 25 27 28 26 27 22 12 9 7 5 8 19 11 11 12 11 14 11 9 6 10 10 15 13 52 61 71 60 60 61 56 65 59 50 50 42 37 41 44
55 68 81 83 81 76 68 60 53 49 44 39 36 32 27 30 24 32 31 31 33 26 8 8 6 4 19 11 10 11 11 7 7 12 11 13 9 17 41 50 50 48 35 32 28 34 45 54 51 46 44 45 50 51
41 51 63 78 81 81 79 71 61 53 48 45 38 19 13 16 26 19 13 11 19 24 18 14 13 8 21 18 13 14 10 6 6 10 14 9 15 80 72 65 70 73 53 43 44 44 40 41 40 40 42 42 46 46
36 39 45 58 71 79 78 79 72 63 57 57 29 22 18 16 16 12 11 16 19 9 20 20 43 18 24 12 11 18 8 9 7 9 11 8 13 29 26 35 31 39 37 41 46 42 37 35 33 32 33 35 41 48
34 32 34 36 52 63 74 73 76 78 78 71 43 29 27 16 16 13 10 12 14 15 21 15 16 20 15 13 11 14 9 7 10 19 8 8 20 43 25 21 26 27 18 17 23 30 32 33 32 35 37 40 40 43
34 33 31 31 30 44 57 67 66 72 73 57 32 25 23 21 15 16 22 9 10 17 27 24 13 21 13 12 7 11 13 13 15 9 9 15 64 34 18 24 28 29 35 39 37 36 36 38 40 45 44 43 45 48
29 31 34 32 30 28 38 56 55 69 59 26 25 17 16 15 16 13 11 16 20 18 36 37 21 14 13 13 11 10 8 10 10 10 16 19 28 26 23 16 15 15 16 19 23 24 26 31 35 38 40 41 42 49
24 26 30 33 35 31 28 38 57 78 35 18 20 17 21 26 15 19 35 20 14 27 47 25 13 12 9 9 10 8 12 13 14 13 10 1 9 11 12 18 18 20 21 22 25 29 32 34 38 38 39 44 46 47
23 25 27 23 23 30 31 31 52 75 25 13 16 10 7 19 26 16 29 28 26 35 23 10 10 8 11 9 15 22 10 17 9 11 13 13 15 14 14 16 20 26 30 34 37 41 45 47 47 49 51 49 45 41
18 22 18 18 29 31 30 34 42 21 22 13 13 22 14 3 19 27 25 26 35 42 10 12 15 19 10 10 14 15 13 6 8 7 9 13 18 22 24 26 30 38 44 47 52 55 56 56 55 53 48 42 35 29
24 20 26 20 20 20 25 28 15 14 14 17 13 24 21 18 14 12 20 29 33 27 18 9 7 13 13 20 15 10 18 6 4 4 8 12 20 32 45 52 62 59 60 65 61 57 55 54 53 41 41 36 28 22
24 17 14 15 17 17 9 17 16 8 20 10 20 12 18 19 32 29 27 33 43 31 10 8 9 8 10 11 13 7 8 4 5 17 37 53 57 59 56 49 46 43 45 47 44 43 39 44 37 29 22 16 18 23
28 27 26 18 20 13 9 10 14 12 12 13 17 19 20 24 30 39 41 42 46 18 15 12 13 38 34 23 13 17 25 41 50 51 52 50 51 50 46 46 47 45 43 42 38 48 39 30 25 19 15 12 11 14
25 22 16 18 24 23 8 8 11 11 9 13 12 18 12 17 19 27 39 51 42 14 8 28 45 50 53 57 51 46 52 52 51 50 55 53 47 48 47 44 41 44 51 47 40 31 17 11 4 6 11 15 20 26
32 26 21 21 16 14 11 14 10 6 8 5 8 18 19 22 23 20 18 26 13 18 33 45 54 57 60 61 61 56 48 51 55 54 54 54 51 47 47 49 54 42 29 13 6 4 5 8 12 15 21 24 26 28
24 24 13 13 10 10 8 12 11 10 8 9 10 8 8 10 11 17 12 17 14 18 24 31 36 42 46 49 52 55 51 54 53 48 50 51 50 46 32 13 8 14 15 14 11 10 13 19 24 26 27 29 32 34
26 22 12 12 17 7 8 10 13 10 8 7 4 5 7 11 13 10 7 5 5 10 11 16 21 27 24 24 28 31 33 33 27 22 15 9 15 26 23 21 19 17 15 12 13 16 19 20 23 26 30 34 37 40
13 15 11 12 13 10 9 8 9 10 9 15 14 9 6 9 9 9 4 8 9 13 16 17 13 6 17 21 26 28 28 30 32 37 31 24 21 17 14 10 10 13 18 19 17 19 23 26 30 34 38 39 42 44
14 18 18 19 10 11 12 8 13 13 7 7 9 4 5 5 7 5 4 12 12 13 19 20 17 23 29 29 26 23 18 18 14 16 14 11 9 7 7 8 10 14 18 22 26 29 31 34 37 41 42 43 45 47
11 13 12 14 8 8 8 10 5 6 12 11 7 9 7 9 9 6 15 7 8 12 16 17 15 15 14 12 8 7 5 4 3 8 9 8 8 8 10 11 13 19 23 27 30 32 35 37 40 42 45 45 43 43
9 20 13 19 13 11 4 4 6 7 6 6 8 9 6 1 5 6 8 10 16 14 8 8 7 6 5 5 5 5 6 8 7 5 3 6 6 11 15 17 22 25 25 26 28 31 35 38 40 42 43 45 47 45
12 16 19 11 9 12 14 10 7 7 8 13 7 5 6 6 9 12 19 21 15 9 5 1 4 2 4 7 7 9 7 6 4 1 1 4 8 14 18 22 25 27 28 29 28 29 33 36 38 39 40 40 40 39
15 27 16 15 10 14 14 18 10 11 9 10 10 10 9 11 18 19 20 20 17 13 6 2 0 5 7 7 6 6 6 7 6 4 3 8 15 22 26 27 28 29 30 32 35 37 37 38 38 37 39 42 43 46
23 27 13 14 11 21 22 23 20 10 13 16 15 11 13 14 18 21 21 20 17 12 8 4 4 6 6 7 9 8 2 4 6 10 14 18 22 25 26 27 27 29 32 34 36 37 40 41 41 42 43 45 46 47
24 24 22 13 12 20 19 18 17 17 16 16 12 12 14 12 12 16 22 24 19 15 12 9 10 11 11 8 6 3 0 4 8 12 15 17 19 21 24 27 29 31 33 34 35 37 39 40 41 42 43 43 45 46
10 9 10 14 7 9 15 14 13 11 10 15 18 16 19 17 13 21 21 30 26 21 17 13 14 13 12 11 9 2 4 7 11 15 18 21 23 25 27 28 31 32 34 35 36 38 39 39 39 40 41 41 41 42
Wind_Direction_500mb
249 252 255 256 258 261 258 255 259 274 292 309 298 285 266 260 257 239 239 230 217 246 269 237 231 200 184 191 185 153 144 183 182 206 215 218 234 199 254 216 192 191 185 202 199 223 268 151 149 215 315 218 223 223
247 249 251 253 252 250 249 247 248 259 273 295 296 287 267 257 257 250 240 242 244 248 252 270 248 240 225 209 207 179 257 160 175 180 213 226 218 220 245 260 200 236 215 226 208 224 263 195 233 238 274 273 268 260
244 244 245 247 251 249 244 242 241 246 259 278 294 285 282 260 253 251 243 243 264 273 276 260 250 245 240 233 219 215 227 197 195 187 170 194 232 203 233 238 244 231 225 238 248 247 253 254 254 260 263 265 267 262
241 241 240 242 244 246 242 238 236 237 243 259 281 289 287 283 255 247 246 240 232 258 271 244 246 241 241 229 225 225 234 224 211 193 211 200 230 210 251 275 248 249 172 229 254 266 273 266 262 260 260 262 261 258
238 238 238 238 239 242 242 238 234 235 236 244 259 275 288 291 289 267 251 242 234 222 294 291 282 260 238 230 223 225 230 224 204 193 192 223 248 242 243 277 253 227 236 231 257 268 273 280 289 281 274 271 263 261
239 236 236 237 236 237 238 236 233 234 235 237 247 259 273 290 299 307 280 254 236 231 261 285 262 245 232 221 216 216 208 204 210 207 226 236 222 219 257 252 255 247 238 236 250 267 275 279 280 273 268 269 268 256
235 237 235 234 233 234 234 234 230 230 233 234 240 254 264 275 276 245 254 233 146 161 235 288 236 232 192 186 199 201 208 208 209 219 224 242 222 215 255 251 260 263 247 244 250 264 269 263 267 268 262 257 256 248
238 234 234 233 232 232 231 231 229 227 229 232 236 243 250 261 273 268 255 247 244 285 249 260 221 201 182 182 190 185 196 198 217 228 224 213 200 219 258 246 254 257 261 258 257 253 257 269 266 267 267 259 252 247
243 237 233 231 231 230 228 227 226 224 222 226 232 241 252 253 256 255 263 248 229 211 228 211 240 215 170 166 158 165 186 199 203 229 217 186 216 228 238 252 258 264 249 257 273 259 257 258 265 265 260 254 253 253
251 244 236 231 230 229 228 226 221 217 215 218 224 218 221 207 228 240 243 215 200 208 223 240 208 196 167 175 176 157 181 220 220 213 160 220 255 249 253 261 269 274 268 269 266 263 259 263 265 268 263 261 257 258
247 250 244 233 230 227 225 224 221 209 206 205 199 203 202 195 190 209 224 199 192 223 209 228 207 178 190 164 173 202 189 190 230 168 208 217 263 254 262 254 277 282 269 260 256 261 263 266 270 276 277 275 268 266
245 244 245 244 230 227 224 220 216 212 202 201 193 169 176 198 213 209 199 188 202 210 189 204 188 190 169 164 173 185 196 188 239 143 206 237 261 273 272 276 294 290 292 296 288 280 279 284 291 286 291 294 289 284
248 240 239 238 240 227 221 219 214 215 204 183 184 162 169 193 222 211 189 191 202 193 183 169 149 156 150 177 162 183 194 209 140 195 229 233 254 277 296 299 292 290 298 300 303 293 294 296 298 297 299 298 300 297
253 247 236 234 232 228 221 211 208 208 183 181 167 180 199 189 227 192 181 194 200 182 166 162 144 154 159 167 175 201 193 152 209 222 233 247 264 285 302 303 299 309 310 325 334 328 316 310 310 309 310 308 300 295
242 246 245 236 230 224 221 213 200 202 199 194 184 203 213 220 203 204 207 183 171 165 151 147 123 157 153 185 200 175 190 225 221 227 235 280 337 316 324 346 348 351 344 332 323 324 327 326 323 320 317 313 302 295
238 244 252 246 237 226 219 201 191 197 208 225 219 232 235 203 202 174 187 187 177 157 154 143 146 177 210 211 187 206 209 215 227 227 253 306 333 352 350 2 355 349 347 341 335 330 326 323 318 313 312 305 293 283
228 229 215 214 199 214 207 201 200 201 208 217 228 231 232 242 207 205 197 191 174 161 177 170 193 200 162 214 210 197 211 216 238 311 337 355 356 359 3 7 1 348 336 330 325 321 314 310 307 304 298 290 282 274
218 223 220 221 202 195 200 199 220 220 230 220 210 218 205 207 182 174 186 186 170 195 196 212 181 197 217 227 224 209 230 246 194 72 29 10 349 333 327 322 319 316 312 310 309 303 299 297 296 290 281 275 270 266
213 200 210 221 220 205 214 206 212 241 224 222 222 210 208 225 221 221 216 213 213 213 201 204 228 215 231 280 309 82 98 104 314 316 309 307 303 302 304 301 298 294 297 296 293 292 291 288 278 270 265 252 240 259
221 216 214 209 208 204 235 230 199 218 205 216 219 211 217 232 235 214 213 216 213 209 195 202 235 254 263 266 294 297 286 294 300 299 299 302 300 297 294 293 292 291 294 293 279 287 277 250 251 252 261 278 306 331
219 210 201 206 216 219 250 244 227 227 207 217 232 211 227 225 222 207 206 219 211 221 228 232 247 261 266 274 281 286 283 285 282 285 290 295 297 297 297 293 296 296 290 280 272 262 245 242 268 332 346 350 349 349
211 203 209 200 208 212 249 238 234 251 220 226 201 204 236 238 237 229 207 207 228 224 224 238 246 255 265 271 277 282 284 283 285 285 286 289 290 294 294 295 297 282 271 250 204 139 84 23 358 349 344 336 323 315
182 182 178 186 214 228 244 215 222 217 226 187 180 203 223 207 204 192 211 211 208 228 233 249 253 256 266 272 278 279 281 283 286 287 288 288 290 293 289 274 155 123 99 79 66 33 2 349 339 328 323 324 323 321
172 172 177 198 213 230 231 220 204 212 208 204 202 222 219 223 193 204 234 120 17 355 339 315 298 287 281 263 258 269 276 276 278 278 283 262 130 105 96 80 64 58 47 21 358 348 337 324 324 325 324 323 321 319
168 180 194 205 203 220 225 210 194 195 218 199 197 207 190 194 208 211 176 121 71 43 35 28 13 103 119 107 91 92 103 101 98 96 94 88 82 78 83 74 37 8 356 354 341 337 336 334 331 328 326 324 321 319
215 193 196 197 187 212 203 201 198 204 190 194 209 180 180 222 231 172 112 126 107 76 75 70 66 73 74 77 82 92 99 94 91 96 95 92 89 81 40 10 14 349 348 340 336 335 333 329 329 327 326 324 321 320
197 188 198 200 208 220 221 223 207 193 181 196 176 178 185 217 194 112 124 92 134 130 111 100 87 78 71 62 49 37 15 357 25 87 83 60 35 22 14 1 353 342 340 338 338 332 328 328 327 326 323 321 321 321
198 178 175 184 198 221 226 206 197 207 198 173 171 195 214 243 97 92 117 147 159 152 118 107 79 39 33 43 61 84 116 112 104 97 56 12 22 14 0 354 347 341 339 340 336 336 337 337 333 330 324 326 328 326
179 176 160 172 185 200 216 208 223 221 195 188 192 169 133 102 147 145 159 168 169 173 171 72 2 22 96 106 98 97 113 144 140 159 55 18 4 342 350 355 354 347 343 343 344 344 344 343 342 338 339 335 329 324
183 176 186 172 179 202 208 199 215 214 208 204 156 128 123 142 167 172 173 179 184 188 201 265 251 150 162 165 147 122 104 100 112 109 56 1 352 353 353 352 351 347 344 343 345 344 344 343 343 345 346 347 346 342
180 183 193 189 213 219 219 222 225 202 187 186 179 155 155 168 181 184 184 185 186 191 195 188 195 186 175 176 182 175 141 36 30 19 8 359 354 351 348 344 340 341 343 343 341 340 339 341 343 343 344 345 346 346
183 194 200 195 217 221 217 212 215 221 217 194 178 156 161 162 181 205 210 210 215 218 221 220 212 210 212 210 196 178 241 353 353 352 350 348 344 343 343 341 340 340 339 338 338 337 338 341 343 343 342 343 345 346
160 169 189 207 192 189 195 186 200 195 195 210 206 199 197 198 191 215 208 210 211 213 215 216 211 206 205 205 203 227 348 341 341 347 346 343 343 341 341 341 340 339 339 340 340 338 337 338 339 341 341 342 345 347
Wind_Speed_850mb
48 44 41 38 35 33 27 23 19 17 15 15 12 12 11 12 12 11 11 11 16 10 15 18 17 9 12 17 10 19 14 9 11 11 9 8 8 6 7 5 10 18 16 10 11 11 18 23 22 13 7 5 15 24
51 47 44 41 38 36 32 27 23 20 15 15 15 12 13 13 14 13 12 13 15 19 14 16 29 32 30 14 15 28 5 11 21 9 8 4 8 7 9 8 13 11 15 6 19 14 5 44 29 25 23 27 26 27
56 51 48 45 42 40 36 33 29 24 20 18 16 14 12 12 14 15 14 13 13 16 22 26 25 38 35 35 30 10 13 13 13 12 12 5 11 6 10 13 14 14 27 11 5 33 55 58 57 57 54 54 48 43
60 56 52 49 45 43 40 38 34 29 24 20 16 13 13 12 12 14 16 14 13 10 9 9 16 22 26 38 35 40 24 17 16 14 9 6 7 15 10 14 19 20 18 20 34 59 63 68 63 55 48 47 47 44
67 62 58 55 49 45 43 42 38 35 30 24 19 14 13 13 12 12 15 18 19 14 7 10 18 26 26 27 34 34 29 21 11 8 8 8 10 8 20 11 25 44 32 24 23 48 43 48 43 29 33 35 34 34
78 70 65 61 56 51 45 45 41 40 35 28 24 19 15 13 10 9 6 9 22 21 7 6 10 14 24 27 24 26 24 19 16 9 9 11 12 9 8 10 27 45 61 66 73 60 43 51 46 38 42 38 35 33
83 81 75 69 63 58 51 47 46 43 39 34 28 23 19 17 14 10 5 3 7 10 6 10 7 4 11 13 12 12 22 13 16 10 12 14 9 15 8 17 27 33 45 52 66 59 62 62 55 31 29 34 36 37
71 82 84 78 72 65 59 52 49 46 42 36 32 30 27 25 27 28 26 27 22 12 9 7 5 8 19 11 11 12 11 14 11 9 6 10 10 15 13 52 61 71 60 60 61 56 65 59 50 50 42 37 41 44
55 68 81 83 81 76 68 60 53 49 44 39 36 32 27 30 24 32 31 31 33 26 8 8 6 4 19 11 10 11 11 7 7 12 11 13 9 17 41 50 50 48 35 32 28 34 45 54 51 46 44 45 50 51
41 51 63 78 81 81 79 71 61 53 48 45 38 19 13 16 26 19 13 11 19 24 18 14 13 8 21 18 13 14 10 6 6 10 14 9 15 80 72 65 70 73 53 43 44 44 40 41 40 40 42 42 46 46
36 39 45 58 71 79 78 79 72 63 57 57 29 22 18 16 16 12 11 16 19 9 20 20 43 18 24 12 11 18 8 9 7 9 11 8 13 29 26 35 31 39 37 41 46 42 37 35 33 32 33 35 41 48
34 32 34 36 52 63 74 73 76 78 78 71 43 29 27 16 16 13 10 12 14 15 21 15 16 20 15 13 11 14 9 7 10 19 8 8 20 43 25 21 26 27 18 17 23 30 32 33 32 35 37 40 40 43
34 33 31 31 30 44 57 67 66 72 73 57 32 25 23 21 15 16 22 9 10 17 27 24 13 21 13 12 7 11 13 13 15 9 9 15 64 34 18 24 28 29 35 39 37 36 36 38 40 45 44 43 45 48
29 31 34 32 30 28 38 56 55 69 59 26 25 17 16 15 16 13 11 16 20 18 36 37 21 14 13 13 11 10 8 10 10 10 16 19 28 26 23 16 15 15 16 19 23 24 26 31 35 38 40 41 42 49
24 26 30 33 35 31 28 38 57 78 35 18 20 17 21 26 15 19 35 20 14 27 47 25 13 12 9 9 10 8 12 13 14 13 10 1 9 11 12 18 18 20 21 22 25 29 32 34 38 38 39 44 46 47
23 25 27 23 23 30 31 31 52 75 25 13 16 10 7 19 26 16 29 28 26 35 23 10 10 8 11 9 15 22 10 17 9 11 13 13 15 14 14 16 20 26 30 34 37 41 45 47 47 49 51 49 45 41
18 22 18 18 29 31 30 34 42 21 22 13 13 22 14 3 19 27 25 26 35 42 10 12 15 19 10 10 14 15 13 6 8 7 9 13 18 22 24 26 30 38 44 47 52 55 56 56 55 53 48 42 35 29
24 20 26 20 20 20 25 28 15 14 14 17 13 24 21 18 14 12 20 29 33 27 18 9 7 13 13 20 15 10 18 6 4 4 8 12 20 32 45 52 62 59 60 65 61 57 55 54 53 41 41 36 28 22
24 17 14 15 17 17 9 17 16 8 20 10 20 12 18 19 32 29 27 33 43 31 10 8 9 8 10 11 13 7 8 4 5 17 37 53 57 59 56 49 46 43 45 47 44 43 39 44 37 29 22 16 18 23
28 27 26 18 20 13 9 10 14 12 12 13 17 19 20 24 30 39 41 42 46 18 15 12 13 38 34 23 13 17 25 41 50 51 52 50 51 50 46 46 47 45 43 42 38 48 39 30 25 19 15 12 11 14
25 22 16 18 24 23 8 8 11 11 9 13 12 18 12 17 19 27 39 51 42 14 8 28 45 50 53 57 51 46 52 52 51 50 55 53 47 48 47 44 41 44 51 47 40 31 17 11 4 6 11 15 20 26
32 26 21 21 16 14 11 14 10 6 8 5 8 18 19 22 23 20 18 26 13 18 33 45 54 57 60 61 61 56 48 51 55 54 54 54 51 47 47 49 54 42 29 13 6 4 5 8 12 15 21 24 26 28
24 24 13 13 10 10 8 12 11 10 8 9 10 8 8 10 11 17 12 17 14 18 24 31 36 42 46 49 52 55 51 54 53 48 50 51 50 46 32 13 8 14 15 14 11 10 13 19 24 26 27 29 32 34
26 22 12 12 17 7 8 10 13 10 8 7 4 5 7 11 13 10 7 5 5 10 11 16 21 27 24 24 28 31 33 33 27 22 15 9 15 26 23 21 19 17 15 12 13 16 19 20 23 26 30 34 37 40
13 15 11 12 13 10 9 8 9 10 9 15 14 9 6 9 9 9 4 8 9 13 16 17 13 6 17 21 26 28 28 30 32 37 31 24 21 17 14 10 10 13 18 19 17 19 23 26 30 34 38 39 42 44
14 18 18 19 10 11 12 8 13 13 7 7 9 4 5 5 7 5 4 12 12 13 19 20 17 23 29 29 26 23 18 18 14 16 14 11 9 7 7 8 10 14 18 22 26 29 31 34 37 41 42 43 45 47
11 13 12 14 8 8 8 10 5 6 12 11 7 9 7 9 9 6 15 7 8 12 16 17 15 15 14 12 8 7 5 4 3 8 9 8 8 8 10 11 13 19 23 27 30 32 35 37 40 42 45 45 43 43
9 20 13 19 13 11 4 4 6 7 6 6 8 9 6 1 5 6 8 10 16 14 8 8 7 6 5 5 5 5 6 8 7 5 3 6 6 11 15 17 22 25 25 26 28 31 35 38 40 42 43 45 47 45
12 16 19 11 9 12 14 10 7 7 8 13 7 5 6 6 9 12 19 21 15 9 5 1 4 2 4 7 7 9 7 6 4 1 1 4 8 14 18 22 25 27 28 29 28 29 33 36 38 39 40 40 40 39
15 27 16 15 10 14 14 18 10 11 9 10 10 10 9 11 18 19 20 20 17 13 6 2 0 5 7 7 6 6 6 7 6 4 3 8 15 22 26 27 28 29 30 32 35 37 37 38 38 37 39 42 43 46
23 27 13 14 11 21 22 23 20 10 13 16 15 11 13 14 18 21 21 20 17 12 8 4 4 6 6 7 9 8 2 4 6 10 14 18 22 25 26 27 27 29 32 34 36 37 40 41 41 42 43 45 46 47
24 24 22 13 12 20 19 18 17 17 16 16 12 12 14 12 12 16 22 24 19 15 12 9 10 11 11 8 6 3 0 4 8 12 15 17 19 21 24 27 29 31 33 34 35 37 39 40 41 42 43 43 45 46
10 9 10 14 7 9 15 14 13 11 10 15 18 16 19 17 13 21 21 30 26 21 17 13 14 13 12 11 9 2 4 7 11 15 18 21 23 25 27 28 31 32 34 35 36 38 39 39 39 40 41 41 41 42
Wind_Direction_850mb
249 252 255 256 258 261 258 255 259 274 292 309 298 285 266 260 257 239 239 230 217 246 269 237 231 200 184 191 185 153 144 183 182 206 215 218 234 199 254 216 192 191 185 202 199 223 268 151 149 215 315 218 223 223
247 249 251 253 252 250 249 247 248 259 273 295 296 287 267 257 257 250 240 242 244 248 252 270 248 240 225 209 207 179 257 160 175 180 213 226 218 220 245 260 200 236 215 226 208 224 263 195 233 238 274 273 268 260
244 244 245 247 251 249 244 242 241 246 259 278 294 285 282 260 253 251 243 243 264 273 276 260 250 245 240 233 219 215 227 197 195 187 170 194 232 203 233 238 244 231 225 238 248 247 253 254 254 260 263 265 267 262
241 241 240 242 244 246 242 238 236 237 243 259 281 289 287 283 255 247 246 240 232 258 271 244 246 241 241 229 225 225 234 224 211 193 211 200 230 210 251 275 248 249 172 229 254 266 273 266 262 260 260 262 261 258
238 238 238 238 239 242 242 238 234 235 236 244 259 275 288 291 289 267 251 242 234 222 294 291 282 260 238 230 223 225 230 224 204 193 192 223 248 242 243 277 253 227 236 231 257 268 273 280 289 281 274 271 263 261
239 236 236 237 236 237 238 236 233 234 235 237 247 259 273 290 299 307 280 254 236 231 261 285 262 245 232 221 216 216 208 204 210 207 226 236 222 219 257 252 255 247 238 236 250 267 275 279 280 273 268 269 268 256
235 237 235 234 233 234 234 234 230 230 233 234 240 254 264 275 276 245 254 233 146 161 235 288 236 232 192 186 199 201 208 208 209 219 224 242 222 215 255 251 260 263 247 244 250 264 269 263 267 268 262 257 256 248
238 234 234 233 232 232 231 231 229 227 229 232 236 243 250 261 273 268 255 247 244 285 249 260 221 201 182 182 190 185 196 198 217 228 224 213 200 219 258 246 254 257 261 258 257 253 257 269 266 267 267 259 252 247
243 237 233 231 231 230 228 227 226 224 222 226 232 241 252 253 256 255 263 248 229 211 228 211 240 215 170 166 158 165 186 199 203 229 217 186 216 228 238 252 258 264 249 257 273 259 257 258 265 265 260 254 253 253
251 244 236 231 230 229 228 226 221 217 215 218 224 218 221 207 228 240 243 215 200 208 223 240 208 196 167 175 176 157 181 220 220 213 160 220 255 249 253 261 269 274 268 269 266 263 259 263 265 268 263 261 257 258
247 250 244 233 230 227 225 224 221 209 206 205 199 203 202 195 190 209 224 199 192 223 209 228 207 178 190 164 173 202 189 190 230 168 208 217 263 254 262 254 277 282 269 260 256 261 263 266 270 276 277 275 268 266
245 244 245 244 230 227 224 220 216 212 202 201 193 169 176 198 213 209 199 188 202 210 189 204 188 190 169 164 173 185 196 188 239 143 206 237 261 273 272 276 294 290 292 296 288 280 279 284 291 286 291 294 289 284
248 240 239 238 240 227 221 219 214 215 204 183 184 162 169 193 222 211 189 191 202 193 183 169 149 156 150 177 162 183 194 209 140 195 229 233 254 277 296 299 292 290 298 300 303 293 294 296 298 297 299 298 300 297
253 247 236 234 232 228 221 211 208 208 183 181 167 180 199 189 227 192 181 194 200 182 166 162 144 154 159 167 175 201 193 152 209 222 233 247 264 285 302 303 299 309 310 325 334 328 316 310 310 309 310 308 300 295
242 246 245 236 230 224 221 213 200 202 199 194 184 203 213 220 203 204 207 183 171 165 151 147 123 157 153 185 200 175 190 225 221 227 235 280 337 316 324 346 348 351 344 332 323 324 327 326 323 320 317 313 302 295
238 244 252 246 237 226 219 201 191 197 208 225 219 232 235 203 202 174 187 187 177 157 154 143 146 177 210 211 187 206 209 215 227 227 253 306 333 352 350 2 355 349 347 341 335 330 326 323 318 313 312 305 293 283
228 229 215 214 199 214 207 201 200 201 208 217 228 231 232 242 207 205 197 191 174 161 177 170 193 200 162 214 210 197 211 216 238 311 337 355 356 359 3 7 1 348 336 330 325 321 314 310 307 304 298 290 282 274
218 223 220 221 202 195 200 199 220 220 230 220 210 218 205 207 182 174 186 186 170 195 196 212 181 197 217 227 224 209 230 246 194 72 29 10 349 333 327 322 319 316 312 310 309 303 299 297 296 290 281 275 270 266
213 200 210 221 220 205 214 206 212 241 224 222 222 210 208 225 221 221 216 213 213 213 201 204 228 215 231 280 309 82 98 104 314 316 309 307 303 302 304 301 298 294 297 296 293 292 291 288 278 270 265 252 240 259
221 216 214 209 208 204 235 230 199 218 205 216 219 211 217 232 235 214 213 216 213 209 195 202 235 254 263 266 294 297 286 294 300 299 299 302 300 297 294 293 292 291 294 293 279 287 277 250 251 252 261 278 306 331
219 210 201 206 216 219 250 244 227 227 207 217 232 211 227 225 222 207 206 219 211 221 228 232 247 261 266 274 281 286 283 285 282 285 290 295 297 297 297 293 296 296 290 280 272 262 245 242 268 332 346 350 349 349
211 203 209 200 208 212 249 238 234 251 220 226 201 204 236 238 237 229 207 207 228 224 224 238 246 255 265 271 277 282 284 283 285 285 286 289 290 294 294 295 297 282 271 250 204 139 84 23 358 349 344 336 323 315
182 182 178 186 214 228 244 215 222 217 226 187 180 203 223 207 204 192 211 211 208 228 233 249 253 256 266 272 278 279 281 283 286 287 288 288 290 293 289 274 155 123 99 79 66 33 2 349 339 328 323 324 323 321
172 172 177 198 213 230 231 220 204 212 208 204 202 222 219 223 193 204 234 120 17 355 339 315 298 287 281 263 258 269 276 276 278 278 283 262 130 105 96 80 64 58 47 21 358 348 337 324 324 325 324 323 321 319
168 180 194 205 203 220 225 210 194 195 218 199 197 207 190 194 208 211 176 121 71 43 35 28 13 103 119 107 91 92 103 101 98 96 94 88 82 78 83 74 37 8 356 354 341 337 336 334 331 328 326 324 321 319
215 193 196 197 187 212 203 201 198 204 190 194 209 180 180 222 231 172 112 126 107 76 75 70 66 73 74 77 82 92 99 94 91 96 95 92 89 81 40 10 14 349 348 340 336 335 333 329 329 327 326 324 321 320
197 188 198 200 208 220 221 223 207 193 181 196 176 178 185 217 194 112 124 92 134 130 111 100 87 78 71 62 49 37 15 357 25 87 83 60 35 22 14 1 353 342 340 338 338 332 328 328 327 326 323 321 321 321
198 178 175 184 198 221 226 206 197 207 198 173 171 195 214 243 97 92 117 147 159 152 118 107 79 39 33 43 61 84 116 112 104 97 56 12 22 14 0 354 347 341 339 340 336 336 337 337 333 330 324 326 328 326
179 176 160 172 185 200 216 208 223 221 195 188 192 169 133 102 147 145 159 168 169 173 171 72 2 22 96 106 98 97 113 144 140 159 55 18 4 342 350 355 354 347 343 343 344 344 344 343 342 338 339 335 329 324
183 176 186 172 179 202 208 199 215 214 208 204 156 128 123 142 167 172 173 179 184 188 201 265 251 150 162 165 147 122 104 100 112 109 56 1 352 353 353 352 351 347 344 343 345 344 344 343 343 345 346 347 346 342
180 183 193 189 213 219 219 222 225 202 187 186 179 155 155 168 181 184 184 185 186 191 195 188 195 186 175 176 182 175 141 36 30 19 8 359 354 351 348 344 340 341 343 343 341 340 339 341 343 343 344 345 346 346
183 194 200 195 217 221 217 212 215 221 217 194 178 156 161 162 181 205 210 210 215 218 221 220 212 210 212 210 196 178 241 353 353 352 350 348 344 343 343 341 340 340 339 338 338 337 338 341 343 343 342 343 345 346
160 169 189 207 192 189 195 186 200 195 195 210 206 199 197 198 191 215 208 210 211 213 215 216 211 206 205 205 203 227 348 341 341 347 346 343 343 341 341 341 340 339 339 340 340 338 337 338 339 341 341 342 345 347